Location: Islay
(41.3172°N, 105.1346°W)
Time: 18:54:56
(UTC+00:00)

ACS3 Solar Sail - Pass Details

Date: 23 April 2026
Orbit: 894 x 947 km, 97.2° (Epoch: 12 May)

Event Time Altitude Azimuth Distance (km) Brightness Sun altitude
Rises 10:02:24 0° 351° (N) 3,554 5.2 -21.5°
Reaches altitude 10° 10:06:39 10° 321° (NW) 2,619 4.1 -20.9°
Maximum altitude 10:08:33 12° 302° (WNW) 2,501 3.8 -20.6°
Enters shadow 10:09:34 11° 291° (WNW) 2,538 3.7 -20.5°
